Temperature
21 20 20 20 20 19 19 19 19 19 19 19 18 18 18 18 18 18 18 18 17 17 17 17 17 17 17 17 17 17 17 16 16 17 17 17 17 17 17 17 17 16 16
21 20 20 20 20 19 19 19 19 19 19 18 18 18 18 18 18 18 18 18 17 17 17 17 17 17 17 17 17 17 17 16 16 16 16 16 16 16 16 16 16 16 16
21 20 20 20 19 19 19 19 19 19 19 18 18 18 18 18 18 18 18 18 17 17 17 17 17 17 17 17 17 17 17 16 16 16 16 16 16 16 16 16 16 16 16
20 20 20 20 19 19 19 19 19 18 18 18 18 18 18 18 18 18 17 17 17 17 17 17 17 17 17 17 16 16 16 16 16 16 16 16 16 16 16 16 16 16 16
20 20 19 19 19 19 19 18 18 18 18 18 18 18 18 17 18 17 17 17 17 17 17 17 17 16 16 16 16 16 16 16 16 16 16 15 15 15 15 16 15 15 15
20 19 19 19 19 18 18 18 18 18 18 17 17 17 17 17 17 17 17 17 17 17 17 17 16 16 16 16 16 16 16 15 15 15 15 15 15 15 15 15 15 15 15
19 19 19 18 18 18 18 18 17 17 17 17 17 17 17 17 17 16 16 16 16 16 16 16 16 16 16 16 16 15 15 15 15 15 15 15 15 15 15 15 15 14 14
19 18 18 18 18 18 17 17 17 17 17 17 17 16 16 16 16 16 16 16 16 16 15 15 15 15 15 15 15 15 15 15 15 15 15 15 15 14 14 14 14 14 14
18 18 18 18 17 17 17 17 17 16 16 16 16 16 16 16 16 16 16 15 15 15 15 15 14 14 14 14 14 14 14 14 14 14 14 14 14 14 14 14 13 13 13
17 17 17 17 17 16 16 16 16 16 16 16 16 16 16 16 16 15 15 15 15 14 14 14 14 14 14 14 14 14 14 14 14 14 14 14 14 14 13 13 13 13 13
17 17 16 16 16 16 16 16 16 15 15 15 15 15 15 15 15 15 14 14 14 14 14 14 14 14 13 13 13 13 13 13 13 13 13 13 13 13 13 13 13 12 12
17 16 16 16 15 15 15 15 15 15 15 15 14 14 14 14 14 14 14 14 13 13 13 13 13 13 13 13 13 13 13 13 12 12 12 12 12 12 12 12 12 12 12
16 15 15 15 15 15 15 15 14 14 14 14 14 14 14 14 14 13 13 13 13 13 13 13 13 12 12 12 12 12 12 12 12 12 12 12 12 12 12 12 12 12 12
15 15 15 14 14 14 14 14 14 14 14 13 13 13 13 13 13 13 13 13 12 12 12 12 12 12 12 12 12 12 12 11 11 11 11 11 11 11 11 11 11 11 11
14 14 14 14 14 14 13 13 13 13 13 13 13 12 12 12 12 12 12 12 12 12 12 11 12 12 12 11 11 11 11 11 11 11 11 10 11 11 11 11 11 11 11
14 14 13 13 13 13 13 13 13 12 12 12 12 12 12 12 12 12 11 11 11 11 11 11 11 11 11 11 11 10 10 10 10 10 10 10 10 10 10 10 10 10 10
13 13 13 13 13 13 12 12 12 12 12 12 11 11 11 11 11 11 11 11 11 11 11 11 10 10 10 10 10 10 10 10 10 10 10 10 10 9 10 10 10 10 10
13 13 12 12 12 12 12 12 11 11 11 11 11 11 11 11 11 11 10 10 10 10 10 10 10 10 10 9 9 9 9 9 9 9 9 9 9 9 9 9 9 9 9
12 12 12 12 12 12 11 11 11 11 11 11 11 10 10 10 10 10 10 10 10 10 10 9 9 9 9 9 9 9 9 9 9 9 8 8 8 9 9 9 9 9 9
12 12 12 11 11 11 11 11 11 10 10 10 10 10 10 10 10 10 9 9 9 9 9 9 9 9 9 9 9 9 9 9 8 8 8 8 8 8 8 8 8 8 8
11 11 11 11 11 11 10 10 10 10 10 10 10 10 9 9 9 9 9 9 9 9 8 8 8 8 8 8 8 8 8 8 8 8 8 8 8 8 8 8 8 8 7
11 11 11 11 11 10 10 10 10 10 10 10 9 9 9 9 9 9 9 8 8 8 8 8 8 8 8 8 8 8 8 8 8 7 7 7 7 7 7 7 7 7 7
10 10 10 10 10 10 10 10 9 9 9 9 9 9 9 9 8 8 8 8 8 8 8 8 8 8 8 7 7 7 7 7 7 7 7 7 7 7 7 7 7 7 6
10 10 10 10 10 10 9 9 9 9 9 9 9 8 8 8 8 8 8 8 8 7 7 7 7 7 7 7 7 7 7 7 7 7 7 7 6 6 6 6 6 6 6
10 10 10 10 9 9 9 9 9 9 9 9 8 8 8 8 8 8 8 7 7 7 7 7 7 7 7 7 7 6 6 6 6 6 6 6 6 6 6 6 6 6 6
10 9 9 9 9 9 9 9 9 8 8 8 8 8 8 8 8 7 7 7 7 7 7 7 6 6 6 6 6 6 6 6 6 6 6 6 6 6 6 6 5 5 5
Wind_Speed
7 6 6 6 6 6 6 6 5 4 5 5 5 5 5 6 5 6 6 6 6 6 5 6 6 5 5 4 4 4 5 4 5 4 2 2 2 2 2 2 3 3 3
8 7 7 6 6 6 6 6 5 5 5 5 5 5 6 6 6 6 7 6 7 7 7 6 6 5 6 5 5 5 5 5 5 5 3 2 3 2 2 2 2 2 2
8 8 7 7 7 7 7 5 5 5 5 5 5 5 6 6 6 7 7 7 7 7 6 7 7 6 6 5 5 5 5 5 4 4 3 2 2 2 1 1 2 2 2
7 7 7 8 7 7 6 5 5 5 5 5 4 4 5 5 5 6 6 6 6 6 6 6 6 6 7 6 6 6 5 4 4 4 3 3 2 2 2 2 2 2 2
6 6 7 6 6 5 5 5 4 4 5 4 4 3 3 4 4 5 5 5 4 4 4 5 6 6 7 6 6 6 5 4 4 4 4 3 3 2 3 2 3 2 2
5 5 4 4 4 5 5 4 4 4 4 3 4 4 4 4 4 5 4 4 3 4 4 4 5 5 6 6 6 6 7 6 6 5 4 4 5 4 3 3 3 3 3
4 4 4 4 4 4 5 4 4 4 4 3 4 4 5 5 5 4 5 4 3 3 3 3 4 4 4 4 4 5 5 6 7 6 6 6 6 5 5 5 5 4 5
3 3 3 3 3 3 4 4 3 3 3 4 4 4 4 4 4 3 4 3 2 3 4 4 4 3 3 4 4 3 3 4 5 5 6 6 6 5 6 5 5 3 3
3 2 2 3 2 2 3 3 3 3 2 3 3 3 3 3 2 3 2 1 2 3 3 3 3 3 3 4 4 3 3 4 4 4 5 5 5 5 5 3 3 3 3
1 1 2 2 3 3 3 2 2 2 3 2 2 2 2 2 1 2 3 2 2 3 3 3 4 4 4 5 5 4 4 4 3 2 3 3 3 4 5 5 5 4 3
2 2 1 2 3 3 3 2 2 2 1 0 1 1 1 2 2 1 3 3 3 3 3 3 3 3 4 5 5 5 6 4 3 3 3 3 2 3 3 4 5 5 5
3 3 2 1 2 2 3 2 2 2 2 1 1 1 1 1 1 0 1 2 3 3 3 3 2 2 3 4 4 5 4 3 2 2 2 3 3 3 3 4 5 5 5
3 2 1 1 1 1 2 2 2 2 2 2 2 1 1 1 0 1 0 1 2 2 2 3 3 3 3 3 3 3 3 2 2 2 3 4 4 4 3 3 3 3 3
3 2 2 1 1 1 1 2 2 2 2 2 2 2 1 1 1 0 1 1 0 1 1 1 2 2 1 1 1 1 2 2 3 3 3 3 3 3 3 3 3 3 3
3 2 1 1 1 1 1 1 2 2 3 3 3 3 2 2 2 2 2 1 1 2 1 0 0 0 1 1 1 1 1 2 3 3 3 3 3 3 3 3 3 3 4
3 2 2 1 1 1 1 1 4 2 1 1 2 2 1 2 2 2 2 2 2 3 2 1 1 2 2 2 2 2 2 2 3 3 3 3 3 3 3 3 3 4 4
3 2 2 2 2 1 1 1 0 3 4 3 2 1 0 1 1 1 1 1 2 3 1 1 2 2 2 2 2 2 2 2 2 2 3 3 3 3 3 3 3 3 4
3 3 3 3 3 3 3 2 2 2 0 1 2 2 1 2 1 0 1 3 1 1 1 2 2 2 3 3 3 2 2 2 2 2 3 3 3 3 3 3 3 4 4
3 2 2 2 3 3 3 2 2 2 1 1 1 2 2 2 2 2 1 1 1 1 1 2 2 3 3 3 3 3 3 3 2 2 3 3 3 3 3 3 3 4 4
2 3 3 2 2 2 2 2 2 2 1 1 1 1 1 0 1 1 1 1 1 2 2 2 3 3 3 3 3 3 3 2 3 3 3 3 3 3 4 4 3 4 4
2 1 2 2 2 2 2 2 2 2 1 1 2 2 2 2 2 2 2 2 2 3 3 3 3 3 3 3 3 3 3 3 3 3 3 3 3 3 3 3 3 3 3
2 1 2 2 2 2 2 2 2 1 2 2 2 1 2 2 2 3 3 3 3 3 3 3 3 3 3 3 3 3 3 3 3 3 3 4 3 3 3 3 3 3 3
2 2 2 2 2 2 2 1 1 2 2 2 2 2 2 2 3 3 3 3 3 3 3 3 3 3 3 3 3 3 4 4 4 4 4 4 4 3 3 3 3 4 4
2 2 2 1 1 1 1 1 1 2 2 2 2 2 2 3 3 3 3 3 3 3 3 3 3 4 4 3 3 3 4 5 5 4 5 5 5 4 3 3 4 4 4
2 2 2 1 1 1 1 1 1 2 2 2 2 2 2 2 3 3 3 3 3 3 3 3 3 3 4 5 4 4 4 4 4 4 3 4 5 5 4 4 4 4 4
2 2 1 1 1 1 1 1 1 2 2 2 2 2 2 2 2 2 2 2 2 3 3 3 3 3 4 4 4 4 3 3 3 3 3 3 4 4 4 3 4 3 4
Wind_Direction
191 194 195 197 199 200 205 211 207 196 188 194 202 208 214 216 212 209 217 216 221 230 229 225 234 229 223 222 218 213 215 211 235 258 245 248 237 239 240 224 228 219 216
193 191 193 192 193 200 210 210 202 198 195 197 202 204 215 217 210 210 220 221 223 230 231 225 234 229 225 224 217 216 216 213 216 244 251 239 239 232 228 227 236 220 208
188 188 189 194 199 205 210 207 200 198 200 198 200 211 217 217 213 214 215 221 224 227 226 226 230 222 227 224 219 217 216 215 214 224 247 241 242 220 219 228 237 234 221
183 186 191 199 203 207 204 199 198 198 203 207 208 217 221 220 217 217 216 222 228 228 224 226 229 223 226 223 221 218 211 208 206 215 236 246 243 229 204 221 248 243 241
175 184 198 202 197 197 202 202 194 200 211 208 208 220 224 225 226 219 217 224 226 233 236 237 235 229 225 219 219 210 201 204 205 214 229 236 237 225 225 220 233 248 250
167 183 187 189 195 197 203 201 195 205 211 206 214 219 225 236 243 227 210 217 221 231 244 250 248 241 232 218 213 204 197 203 209 211 222 229 236 234 234 224 224 235 253
172 183 185 183 191 199 197 193 199 209 205 211 221 220 230 238 235 224 207 206 216 234 241 245 246 244 224 219 216 213 215 218 210 207 217 229 230 226 218 226 224 232 243
168 181 194 185 186 180 176 184 198 204 208 217 224 225 230 248 229 202 181 199 221 240 244 239 233 235 228 204 205 210 229 237 228 220 225 231 232 223 214 219 225 232 248
158 177 185 179 178 177 183 193 190 193 207 215 216 213 217 241 220 186 158 196 242 259 262 255 237 236 225 192 193 205 230 253 246 227 231 231 226 217 200 188 194 205 247
169 179 171 154 167 183 189 189 180 188 212 209 220 228 226 247 235 184 166 184 238 261 266 258 239 231 227 197 204 208 229 248 248 247 246 250 239 218 197 203 205 212 233
149 111 125 151 167 169 166 169 169 170 167 171 229 268 267 262 258 212 182 189 220 249 261 262 256 224 217 204 206 218 227 232 235 230 237 247 245 236 231 224 218 212 221
118 115 119 153 159 152 155 160 148 140 148 182 217 284 293 274 261 144 167 208 219 241 258 262 262 239 223 212 212 220 214 211 223 229 244 253 252 251 246 242 233 230 234
116 119 116 100 120 132 144 146 139 149 171 200 208 236 283 304 345 66 4 238 217 232 263 262 256 241 228 230 225 212 204 208 217 235 244 253 255 253 248 245 244 241 245
134 132 126 103 78 91 119 151 167 179 183 198 218 226 248 280 297 355 311 319 275 239 284 288 266 250 239 245 258 238 224 224 228 239 250 260 262 249 238 233 235 233 240
142 145 139 132 129 106 88 171 191 207 203 199 214 214 217 245 266 246 228 232 226 220 187 312 306 254 254 262 264 261 239 233 239 251 252 257 258 253 254 245 229 224 230
148 171 183 167 152 152 135 46 45 73 55 129 200 203 232 232 248 261 247 224 206 175 151 191 244 255 246 245 248 262 260 251 251 250 248 250 254 250 252 249 236 229 234
170 190 192 184 178 178 172 164 94 40 51 54 60 83 197 252 253 252 234 172 143 141 152 220 246 256 262 260 250 251 262 267 259 251 252 253 252 248 244 238 231 233 239
185 196 198 200 194 188 188 190 185 182 226 7 28 42 15 2 3 39 126 103 81 116 220 245 256 262 263 264 262 259 260 264 262 263 262 258 251 246 244 243 237 235 236
193 202 204 201 193 188 184 182 177 173 182 210 356 4 21 29 27 21 97 103 214 270 273 269 266 266 266 264 264 264 256 257 262 260 262 262 255 247 244 242 237 232 235
201 204 194 180 176 167 166 171 171 169 173 193 256 284 330 39 2 341 310 288 263 269 271 272 277 275 270 269 268 266 262 260 265 260 262 263 261 252 248 246 244 243 243
192 182 154 145 157 156 163 174 188 182 199 227 250 246 203 213 239 251 254 257 256 256 260 265 271 276 274 270 267 261 257 257 256 257 261 264 261 258 255 250 249 250 254
152 156 146 144 144 157 166 174 185 192 214 233 266 274 227 230 246 254 257 260 261 257 255 256 263 268 262 254 252 254 256 257 258 256 260 262 259 255 252 249 250 249 246
141 138 133 137 145 155 167 178 186 205 225 239 251 259 252 251 250 248 254 261 265 265 264 258 262 269 269 259 251 247 250 255 255 252 251 256 258 256 254 255 256 260 258
131 140 147 147 146 164 175 186 201 217 228 236 245 245 243 246 252 255 259 260 258 262 265 262 258 261 266 268 268 261 258 260 258 250 246 248 254 255 252 257 259 257 254
121 132 142 159 169 174 174 188 212 231 241 243 238 240 245 248 254 261 264 260 254 255 265 273 272 270 270 271 274 272 271 268 261 257 241 239 250 253 254 257 259 260 253
100 108 113 120 132 163 174 194 237 250 253 254 245 243 245 249 258 265 267 265 265 266 272 277 276 274 278 276 277 278 274 273 271 263 241 238 246 250 253 252 251 248 250
Height
1492 1495 1497 1499 1502 1505 1507 1508 1510 1512 1513 1515 1517 1518 1519 1520 1521 1521 1522 1523 1523 1524 1524 1525 1525 1526 1526 1526 1527 1527 1528 1528 1527 1527 1527 1528 1528 1529 1529 1529 1529 1529 1528
1489 1491 1493 1496 1498 1501 1503 1504 1506 1508 1509 1511 1513 1513 1514 1515 1516 1517 1518 1519 1519 1519 1520 1520 1521 1521 1522 1522 1522 1523 1523 1524 1524 1523 1523 1524 1524 1525 1525 1525 1525 1525 1525
1485 1487 1489 1492 1495 1497 1499 1501 1503 1504 1506 1507 1508 1509 1510 1511 1512 1513 1514 1514 1515 1515 1515 1516 1516 1517 1517 1517 1518 1518 1519 1519 1520 1519 1519 1520 1520 1521 1521 1522 1522 1522 1522
1482 1483 1485 1488 1490 1492 1495 1497 1498 1500 1501 1503 1504 1505 1506 1507 1508 1509 1509 1509 1510 1510 1510 1511 1512 1512 1512 1513 1513 1514 1515 1515 1515 1515 1515 1516 1516 1517 1517 1518 1518 1519 1519
1478 1480 1482 1485 1487 1489 1491 1493 1494 1496 1497 1499 1500 1501 1502 1503 1504 1504 1505 1505 1505 1505 1506 1506 1506 1507 1507 1508 1509 1509 1510 1510 1510 1511 1511 1512 1512 1512 1512 1513 1513 1514 1514
1475 1477 1479 1481 1484 1485 1487 1489 1490 1492 1493 1494 1495 1496 1497 1498 1499 1500 1500 1500 1501 1501 1501 1501 1502 1502 1502 1503 1503 1504 1504 1505 1505 1505 1506 1506 1506 1507 1508 1508 1509 1509 1509
1473 1475 1476 1478 1479 1481 1483 1485 1486 1487 1489 1490 1491 1492 1492 1493 1494 1495 1495 1496 1496 1496 1496 1496 1497 1497 1497 1497 1498 1499 1499 1500 1501 1501 1501 1501 1502 1503 1503 1504 1504 1505 1505
1470 1472 1474 1474 1476 1478 1479 1480 1482 1484 1484 1485 1487 1487 1488 1489 1490 1490 1491 1491 1491 1492 1492 1492 1491 1491 1492 1492 1492 1493 1494 1495 1496 1496 1496 1497 1498 1498 1499 1499 1499 1500 1500
1468 1469 1470 1472 1474 1475 1476 1477 1478 1480 1481 1482 1483 1484 1485 1485 1486 1486 1487 1487 1487 1487 1487 1487 1487 1486 1487 1487 1488 1487 1488 1490 1491 1491 1492 1492 1493 1494 1494 1494 1494 1495 1494
1466 1467 1468 1469 1471 1472 1473 1475 1476 1476 1477 1478 1479 1480 1481 1481 1481 1482 1482 1482 1482 1482 1482 1482 1482 1482 1483 1483 1483 1483 1483 1485 1486 1486 1486 1487 1488 1488 1488 1489 1489 1489 1489
1464 1465 1467 1468 1469 1469 1471 1472 1473 1474 1474 1475 1476 1477 1477 1477 1478 1478 1478 1477 1477 1478 1478 1478 1478 1478 1479 1479 1479 1479 1480 1481 1481 1481 1481 1482 1482 1483 1483 1484 1485 1485 1485
1462 1463 1465 1466 1466 1467 1468 1469 1469 1470 1471 1472 1473 1473 1473 1474 1474 1474 1474 1474 1474 1474 1474 1474 1474 1475 1475 1475 1476 1476 1476 1477 1477 1477 1476 1476 1477 1478 1478 1479 1480 1480 1481
1461 1462 1463 1463 1464 1465 1465 1466 1467 1468 1469 1469 1470 1470 1470 1470 1470 1470 1471 1471 1471 1472 1471 1471 1471 1472 1472 1472 1472 1472 1472 1472 1472 1472 1472 1472 1473 1473 1474 1475 1475 1475 1476
1459 1460 1461 1461 1462 1462 1463 1463 1464 1465 1465 1466 1466 1466 1467 1467 1466 1466 1467 1468 1468 1468 1468 1468 1468 1468 1468 1468 1468 1468 1468 1468 1468 1468 1468 1468 1469 1469 1469 1470 1470 1471 1471
1456 1457 1458 1459 1460 1460 1461 1462 1462 1463 1463 1463 1463 1464 1463 1463 1464 1464 1465 1465 1465 1465 1464 1464 1464 1464 1464 1464 1464 1464 1464 1464 1464 1464 1464 1464 1464 1464 1465 1465 1465 1466 1466
1454 1455 1456 1457 1458 1458 1458 1459 1460 1461 1461 1461 1462 1462 1461 1462 1462 1462 1462 1462 1462 1462 1462 1461 1460 1460 1460 1460 1460 1460 1460 1460 1460 1460 1459 1459 1459 1459 1460 1460 1461 1461 1461
1452 1453 1454 1455 1455 1456 1456 1457 1457 1458 1459 1459 1459 1459 1459 1460 1460 1460 1459 1459 1458 1458 1458 1458 1457 1457 1457 1456 1456 1456 1456 1456 1456 1455 1455 1455 1455 1455 1455 1455 1455 1456 1456
1450 1451 1452 1453 1453 1454 1454 1454 1455 1455 1456 1456 1457 1457 1458 1458 1457 1457 1456 1456 1455 1455 1455 1454 1454 1454 1453 1453 1453 1453 1452 1452 1452 1451 1451 1451 1451 1450 1450 1450 1450 1450 1451
1448 1449 1450 1451 1451 1451 1451 1452 1452 1453 1453 1454 1454 1454 1455 1454 1454 1454 1454 1453 1452 1452 1452 1451 1451 1451 1451 1450 1450 1450 1449 1448 1448 1447 1447 1447 1446 1446 1446 1446 1445 1446 1446
1446 1447 1447 1448 1449 1449 1449 1449 1449 1450 1451 1451 1451 1452 1452 1452 1451 1451 1451 1451 1450 1450 1449 1449 1448 1448 1447 1447 1447 1446 1445 1444 1444 1444 1443 1443 1442 1442 1441 1441 1441 1441 1442
1444 1444 1445 1445 1445 1446 1447 1447 1448 1448 1448 1449 1449 1450 1450 1450 1449 1449 1448 1448 1448 1448 1447 1446 1445 1445 1444 1444 1443 1443 1442 1441 1440 1440 1440 1439 1439 1438 1437 1437 1437 1437 1437
1442 1442 1443 1443 1444 1444 1445 1446 1446 1445 1446 1446 1447 1447 1447 1447 1447 1446 1446 1446 1445 1445 1444 1443 1442 1441 1441 1440 1439 1438 1438 1437 1437 1437 1436 1436 1435 1434 1434 1433 1433 1433 1433
1441 1441 1441 1442 1442 1442 1443 1444 1444 1444 1444 1444 1445 1445 1445 1444 1444 1444 1443 1443 1442 1441 1441 1440 1439 1438 1437 1436 1435 1434 1434 1433 1432 1432 1432 1432 1431 1431 1430 1430 1429 1429 1429
1440 1440 1440 1440 1440 1441 1441 1441 1442 1442 1443 1443 1443 1442 1442 1442 1441 1441 1440 1440 1439 1438 1437 1436 1435 1434 1433 1432 1431 1430 1429 1428 1428 1427 1427 1427 1427 1427 1426 1426 1426 1426 1425
1439 1439 1439 1439 1439 1439 1439 1440 1440 1441 1441 1440 1440 1440 1440 1439 1438 1438 1437 1436 1436 1435 1434 1433 1432 1431 1429 1428 1427 1426 1425 1424 1423 1422 1422 1422 1422 1422 1422 1422 1422 1421 1421
1439 1438 1438 1438 1438 1438 1438 1438 1439 1439 1439 1438 1438 1437 1437 1436 1436 1435 1434 1434 1432 1431 1430 1429 1428 1427 1426 1424 1423 1422 1421 1420 1419 1419 1418 1418 1418 1418 1418 1418 1417 1417 1417